COSMOS 2477 (745)

Last updated on Mon Sep 21 2026 00:03:22 GMT+0000 (Coordinated Universal Time)

1 37868U 11064B 26262.56764334 .00000031 00000+0 00000+0 0 9992 2 37868 65.3351 69.7679 0019593 230.4390 160.0639 2.13103024115771
UTC large
Height (km)
Speed (km/s)
/
Latitude / Longitude
Inclination (degrees)
Orbital Period (minutes)
Azimuth
Elevation
Range (km)
Doppler Factor

Next 0 passes for location: London (51.5072 / 0.1276)

No passes found over London.
COSMOS 2477 (745)